CPA389 VHHH-EDDF

Flight info

Callsign CPA389
Flight time N/A
Altitude 30100
Route BEKOL A461 SHL W22 TEPID W24 OSNOV G586 QP B330 PASLU/K0926S0980 B330 ELKAL W179 IGNAK/K0930S0950 W179 WFX/K0924S0980 W179 OMBON W195 VIDEK/K0930S0950 W195 ORUNA/K0917S1010 W195 LAXAL/K0924S0980 W195 IDOPA W197 ANDIM B215 IBANO G470 BIKNO/K0895S1040 G470 AKLAS W192 FKG A368 SARIN/K0891F340 N161 TIROK/K0885F360 N161 GASBI/N0484F360 N161 LEYLA T916 MATAL DCT TABAS DCT REBLO UM11 CRM UL746 GOKPA/N0483F380 UL746 ODERO DCT OPT DCT IRLOX DCT BALUX DCT TEKNO DCT ABETI DCT SUBEN DCT AKINI T161 DEBHI DEBHI1B
Aircraft A346/H-SDE2E3FGHIJ3J4J5M1RWXY/LB1D1

Departure

Time N/A
Airport Hong Kong International Airport (VHHH)

Arrival

Time 2026-05-05 19:07
Airport Frankfurt Main Airport (EDDF)
Time Latitude Longitude Altitude Speed Heading
2026-05-05 18:17 44.68234 26.36480 38009 ft 464 kts 304°
2026-05-05 18:17 44.76730 26.17716 38002 ft 463 kts 304°
2026-05-05 18:18 44.93693 25.79891 37995 ft 461 kts 304°
2026-05-05 18:18 45.10102 25.42823 38014 ft 463 kts 303°
2026-05-05 18:19 45.26136 25.06121 38019 ft 464 kts 303°
2026-05-05 18:19 45.42194 24.68877 38015 ft 463 kts 303°
2026-05-05 18:20 45.58347 24.30877 37994 ft 461 kts 303°
2026-05-05 18:20 45.73346 23.92067 37976 ft 460 kts 299°
2026-05-05 18:21 45.87908 23.52090 37990 ft 460 kts 299°
2026-05-05 18:21 46.02111 23.12526 37981 ft 459 kts 298°
2026-05-05 18:22 46.15973 22.73339 37977 ft 459 kts 298°
2026-05-05 18:22 46.29686 22.33994 37973 ft 459 kts 297°
2026-05-05 18:23 46.43822 21.92813 37948 ft 459 kts 296°
2026-05-05 18:23 46.57981 21.50909 37934 ft 461 kts 296°
2026-05-05 18:24 46.71839 21.09233 37930 ft 461 kts 295°
2026-05-05 18:24 46.85434 20.67678 37918 ft 461 kts 295°
2026-05-05 18:25 46.99124 20.25145 37919 ft 460 kts 294°
2026-05-05 18:25 47.12430 19.83106 37917 ft 459 kts 294°
2026-05-05 18:26 47.24981 19.42783 37920 ft 460 kts 294°
2026-05-05 18:26 47.35983 19.02527 37921 ft 459 kts 283°
2026-05-05 18:27 47.43446 18.58297 37917 ft 458 kts 283°
2026-05-05 18:27 47.50908 18.13158 37896 ft 457 kts 282°
2026-05-05 18:28 47.61507 17.46766 37874 ft 455 kts 282°
2026-05-05 18:28 47.67896 17.01547 37840 ft 454 kts 283°
2026-05-05 18:29 47.77539 16.57871 37807 ft 453 kts 286°
2026-05-05 18:29 47.87131 16.13994 37783 ft 453 kts 286°
2026-05-05 18:30 47.96513 15.70163 37766 ft 452 kts 286°
2026-05-05 18:30 48.05783 15.25911 37747 ft 451 kts 285°
2026-05-05 18:31 48.12999 14.90765 37737 ft 448 kts 285°
2026-05-05 18:31 48.21954 14.46262 37766 ft 450 kts 284°
2026-05-05 18:32 48.30624 14.02178 37777 ft 451 kts 284°
2026-05-05 18:32 48.36170 13.73424 37762 ft 452 kts 283°
2026-05-05 18:33 48.37908 13.64299 37762 ft 453 kts 283°
2026-05-05 18:33 48.39637 13.55166 37761 ft 453 kts 283°
2026-05-05 18:34 48.41362 13.46017 37771 ft 454 kts 284°
2026-05-05 18:34 48.43483 13.36967 37771 ft 456 kts 288°
2026-05-05 18:35 48.45704 13.27992 37773 ft 456 kts 287°
2026-05-05 18:35 48.47885 13.18996 37777 ft 456 kts 287°
2026-05-05 18:36 48.50094 13.09756 37789 ft 457 kts 287°
2026-05-05 18:36 48.52239 13.00713 37786 ft 457 kts 286°
2026-05-05 18:37 48.54386 12.91610 37801 ft 457 kts 286°
2026-05-05 18:37 48.56539 12.82440 37804 ft 457 kts 286°
2026-05-05 18:38 48.58676 12.73299 37806 ft 458 kts 286°
2026-05-05 18:38 48.60800 12.64176 37809 ft 458 kts 286°
2026-05-05 18:39 48.62907 12.55086 37814 ft 458 kts 285°
2026-05-05 18:39 48.65016 12.45950 37812 ft 459 kts 285°
2026-05-05 18:40 48.67152 12.36657 37817 ft 459 kts 285°
2026-05-05 18:40 48.69256 12.27463 37821 ft 460 kts 285°
2026-05-05 18:41 48.71347 12.18288 37825 ft 461 kts 285°
2026-05-05 18:41 48.73434 12.09086 37823 ft 461 kts 285°
2026-05-05 18:42 48.75515 11.99870 37823 ft 462 kts 285°
2026-05-05 18:42 48.77593 11.90625 37818 ft 463 kts 285°
2026-05-05 18:43 48.79671 11.81344 37816 ft 463 kts 285°
2026-05-05 18:43 48.81738 11.72063 37813 ft 464 kts 284°
2026-05-05 18:44 48.83801 11.62760 37812 ft 465 kts 284°
2026-05-05 18:44 48.85857 11.53442 37814 ft 465 kts 284°
2026-05-05 18:45 48.87900 11.44141 37817 ft 466 kts 284°
2026-05-05 18:45 48.89973 11.34642 37533 ft 469 kts 284°
2026-05-05 18:46 48.91004 11.29895 36780 ft 471 kts 284°
2026-05-05 18:46 48.92035 11.25153 36086 ft 472 kts 284°
2026-05-05 18:46 48.93087 11.20402 35398 ft 474 kts 286°
2026-05-05 18:46 48.94331 11.15732 34736 ft 477 kts 290°
2026-05-05 18:47 48.95810 11.11170 34087 ft 481 kts 294°
2026-05-05 18:47 48.97519 11.06755 33376 ft 485 kts 299°
2026-05-05 18:47 48.99424 11.02578 32669 ft 488 kts 303°
2026-05-05 18:47 49.01569 10.98551 31993 ft 490 kts 308°
2026-05-05 18:48 49.03923 10.94760 31295 ft 493 kts 313°
2026-05-05 18:48 49.06433 10.91168 30589 ft 496 kts 315°
2026-05-05 18:48 49.09018 10.87608 29863 ft 498 kts 315°
2026-05-05 18:48 49.11584 10.84043 29062 ft 499 kts 315°
2026-05-05 18:49 49.14135 10.80453 28313 ft 498 kts 315°
2026-05-05 18:49 49.16691 10.76831 27631 ft 496 kts 315°
2026-05-05 18:49 49.19205 10.73244 27243 ft 490 kts 314°
2026-05-05 18:49 49.21630 10.69569 26831 ft 486 kts 313°
2026-05-05 18:50 49.24006 10.65847 26395 ft 483 kts 312°
2026-05-05 18:50 49.26339 10.62147 25870 ft 480 kts 312°
2026-05-05 18:50 49.28640 10.58490 25393 ft 475 kts 312°
2026-05-05 18:50 49.30944 10.54834 24847 ft 472 kts 312°
2026-05-05 18:51 49.33218 10.51227 24371 ft 467 kts 312°
2026-05-05 18:51 49.35391 10.47555 23931 ft 462 kts 309°
2026-05-05 18:51 49.37409 10.43749 23638 ft 458 kts 306°
2026-05-05 18:51 49.39294 10.39792 23566 ft 460 kts 303°
2026-05-05 18:52 49.41132 10.35778 22984 ft 459 kts 303°
2026-05-05 18:52 49.42951 10.31759 22455 ft 454 kts 303°
2026-05-05 18:52 49.44743 10.27796 21974 ft 448 kts 303°
2026-05-05 18:52 49.46513 10.23883 21525 ft 442 kts 303°
2026-05-05 18:53 49.48258 10.20023 21099 ft 436 kts 303°
2026-05-05 18:53 49.49987 10.16199 20684 ft 431 kts 303°
2026-05-05 18:53 49.51690 10.12433 20243 ft 426 kts 303°
2026-05-05 18:53 49.53372 10.08711 19821 ft 421 kts 303°
2026-05-05 18:54 49.55040 10.05017 19405 ft 417 kts 303°
2026-05-05 18:54 49.56738 10.01250 18971 ft 413 kts 303°
2026-05-05 18:54 49.58370 9.97626 18544 ft 409 kts 303°
2026-05-05 18:54 49.59995 9.94020 18127 ft 406 kts 303°
2026-05-05 18:55 49.61605 9.90447 17649 ft 402 kts 302°
2026-05-05 18:55 49.63233 9.86818 17205 ft 398 kts 302°
2026-05-05 18:55 49.64802 9.83315 16786 ft 394 kts 302°
2026-05-05 18:55 49.66349 9.79848 16381 ft 390 kts 302°
2026-05-05 18:56 49.67885 9.76402 15968 ft 386 kts 302°
2026-05-05 18:56 49.69380 9.73039 15567 ft 383 kts 302°
2026-05-05 18:56 49.70880 9.69662 15172 ft 379 kts 302°
2026-05-05 18:56 49.72369 9.66311 14769 ft 376 kts 302°
2026-05-05 18:57 49.73855 9.62963 14359 ft 374 kts 302°
2026-05-05 18:57 49.75326 9.59653 13945 ft 371 kts 302°
2026-05-05 18:57 49.76791 9.56351 13536 ft 368 kts 302°
2026-05-05 18:57 49.78246 9.53064 13107 ft 365 kts 302°
2026-05-05 18:58 49.79731 9.49788 12671 ft 371 kts 306°
2026-05-05 18:58 49.81508 9.46831 12216 ft 377 kts 313°
2026-05-05 18:58 49.83383 9.44007 11756 ft 375 kts 314°
2026-05-05 18:58 49.85273 9.41208 11288 ft 373 kts 314°
2026-05-05 18:59 49.87150 9.38433 10850 ft 371 kts 314°
2026-05-05 18:59 49.89015 9.35675 10406 ft 368 kts 314°
2026-05-05 18:59 49.90854 9.32961 10027 ft 361 kts 314°
2026-05-05 18:59 49.92744 9.30175 9622 ft 355 kts 314°
2026-05-05 19:00 49.94538 9.27526 9187 ft 350 kts 314°
2026-05-05 19:00 49.96336 9.24866 8755 ft 345 kts 314°
2026-05-05 19:00 49.98061 9.22303 8344 ft 340 kts 314°
2026-05-05 19:00 49.99772 9.19744 7925 ft 337 kts 314°
2026-05-05 19:01 50.01431 9.17255 7532 ft 333 kts 314°
2026-05-05 19:01 50.03108 9.14730 7125 ft 330 kts 314°
2026-05-05 19:01 50.04753 9.12248 6726 ft 327 kts 314°
2026-05-05 19:01 50.06378 9.09757 6334 ft 323 kts 310°
2026-05-05 19:02 50.07590 9.06698 5874 ft 316 kts 289°
2026-05-05 19:02 50.08327 9.03163 5437 ft 312 kts 284°
2026-05-05 19:02 50.08957 8.99677 4998 ft 309 kts 284°
2026-05-05 19:02 50.09555 8.96289 4607 ft 306 kts 283°
2026-05-05 19:03 50.09936 8.94110 4386 ft 303 kts 283°
2026-05-05 19:03 50.10497 8.90825 4085 ft 296 kts 280°
2026-05-05 19:03 50.10605 8.87537 3987 ft 281 kts 263°
2026-05-05 19:03 50.09975 8.83541 3731 ft 269 kts 251°
2026-05-05 19:04 50.09529 8.81561 3475 ft 269 kts 249°
2026-05-05 19:04 50.08818 8.78649 3072 ft 267 kts 249°
2026-05-05 19:04 50.08127 8.75843 2659 ft 252 kts 249°
2026-05-05 19:04 50.07511 8.73303 2381 ft 233 kts 249°
2026-05-05 19:05 50.06931 8.70884 2063 ft 220 kts 249°
2026-05-05 19:05 50.06362 8.68509 1745 ft 209 kts 249°
2026-05-05 19:05 50.05836 8.66315 1477 ft 196 kts 249°
2026-05-05 19:05 50.05327 8.64186 1136 ft 184 kts 249°
2026-05-05 19:06 50.04832 8.62122 774 ft 174 kts 249°
2026-05-05 19:06 50.04397 8.60312 586 ft 157 kts 249°
2026-05-05 19:06 50.04014 8.58704 380 ft 142 kts 250°
2026-05-05 19:06 50.03710 8.57431 368 ft 96 kts 249°
2026-05-05 19:07 50.03523 8.56642 362 ft 59 kts 250°
2026-05-05 19:07 50.03413 8.56183 360 ft 35 kts 249°
2026-05-05 19:07 50.03326 8.55822 358 ft 31 kts 249°
2026-05-05 19:07 50.03225 8.55572 356 ft 25 kts 226°
2026-05-05 19:08 50.03152 8.55472 359 ft 3 kts 216°
2026-05-05 19:08 50.03124 8.55443 358 ft 6 kts 207°
2026-05-05 19:08 50.03083 8.55446 355 ft 4 kts 143°
2026-05-05 19:08 50.03069 8.55499 358 ft 7 kts 88°
2026-05-05 19:09 50.03085 8.55582 355 ft 8 kts 70°
2026-05-05 19:09 50.03085 8.55607 353 ft 0 kts 119°
2026-05-05 19:09 50.03084 8.55610 354 ft 0 kts 105°
2026-05-05 19:09 50.03074 8.55626 359 ft 5 kts 153°
2026-05-05 19:10 50.03031 8.55656 357 ft 6 kts 143°
2026-05-05 19:10 50.03024 8.55722 359 ft 8 kts 77°
2026-05-05 19:10 50.03045 8.55818 358 ft 11 kts 71°
2026-05-05 19:10 50.03074 8.55947 359 ft 14 kts 70°
2026-05-05 19:11 50.03111 8.56101 358 ft 17 kts 69°
2026-05-05 19:11 50.03155 8.56278 363 ft 19 kts 69°
2026-05-05 19:11 50.03203 8.56484 359 ft 21 kts 70°
2026-05-05 19:11 50.03261 8.56726 364 ft 24 kts 69°
2026-05-05 19:12 50.03324 8.56984 365 ft 22 kts 69°
2026-05-05 19:12 50.03355 8.57134 365 ft 13 kts 88°
2026-05-05 19:12 50.03330 8.57252 368 ft 12 kts 109°
2026-05-05 19:12 50.03294 8.57388 367 ft 15 kts 113°
2026-05-05 19:13 50.03257 8.57463 370 ft 6 kts 198°
2026-05-05 19:13 50.03227 8.57446 368 ft 4 kts 201°
2026-05-05 19:13 50.03199 8.57429 369 ft 2 kts 203°
2026-05-05 19:13 50.03194 8.57425 368 ft 0 kts 203°